Hourly Weather Bolshie Ermaki

Today, 31 July, Saturday

Time Temperature Precipitation Wind Pressure Humidity
00:00 +16°C° 0 mm 2 mps 735 mmHg 87%
01:00 +16°C° 0 mm 2 mps 735 mmHg 89%
02:00 +15°C° 0 mm 2 mps 735 mmHg 90%
03:00 +16°C° 0 mm 2 mps 735 mmHg 89%
04:00 +16°C° 0 mm 2 mps 735 mmHg 87%
05:00 +16°C° 0 mm 2 mps 735 mmHg 86%
06:00 +18°C° 0 mm 3 mps 735 mmHg 76%
07:00 +20°C° 0 mm 4 mps 735 mmHg 66%
08:00 +22°C° 0 mm 4 mps 735 mmHg 56%
09:00 +23°C° 0 mm 5 mps 736 mmHg 50%
10:00 +25°C° 0 mm 5 mps 736 mmHg 44%
11:00 +26°C° 0 mm 5 mps 736 mmHg 38%
12:00 +26°C° 0 mm 5 mps 736 mmHg 38%
13:00 +27°C° 0 mm 5 mps 736 mmHg 38%
14:00 +27°C° 0 mm 6 mps 736 mmHg 38%
15:00 +26°C° 0 mm 5 mps 736 mmHg 41%
16:00 +26°C° 0 mm 4 mps 737 mmHg 44%
17:00 +25°C° 0 mm 4 mps 737 mmHg 48%
18:00 +22°C° 0 mm 3 mps 737 mmHg 55%
19:00 +20°C° 0 mm 2 mps 737 mmHg 63%
20:00 +19°C° 0 mm 2 mps 737 mmHg 70%
21:00 +18°C° 0 mm 2 mps 737 mmHg 72%
22:00 +17°C° 0 mm 2 mps 738 mmHg 75%
23:00 +17°C° 0 mm 2 mps 738 mmHg 77%

Tomorrow, 1 August, Sunday

Time Temperature Precipitation Wind Pressure Humidity
00:00 +17°C° 0 mm 2 mps 738 mmHg 78%
01:00 +16°C° 0 mm 2 mps 738 mmHg 78%
02:00 +16°C° 0 mm 2 mps 738 mmHg 79%
03:00 +17°C° 0 mm 2 mps 738 mmHg 78%
04:00 +17°C° 0 mm 2 mps 738 mmHg 78%
05:00 +17°C° 0 mm 2 mps 738 mmHg 78%
06:00 +18°C° 0.1 mm 2 mps 738 mmHg 79%
07:00 +19°C° 0.1 mm 1 mps 738 mmHg 81%
08:00 +20°C° 0.1 mm 1 mps 738 mmHg 82%
09:00 +19°C° 0.2 mm 2 mps 738 mmHg 85%
10:00 +19°C° 0.2 mm 2 mps 738 mmHg 88%
11:00 +19°C° 0.2 mm 2 mps 738 mmHg 91%
12:00 +21°C° 0.1 mm 2 mps 738 mmHg 85%
13:00 +22°C° 0.1 mm 3 mps 738 mmHg 79%
14:00 +25°C° 0.1 mm 3 mps 738 mmHg 73%
15:00 +25°C° 0.1 mm 3 mps 738 mmHg 72%
16:00 +25°C° 0.1 mm 3 mps 738 mmHg 71%
17:00 +25°C° 0.1 mm 3 mps 737 mmHg 70%
18:00 +24°C° 0 mm 3 mps 737 mmHg 77%
19:00 +21°C° 0 mm 2 mps 737 mmHg 83%
20:00 +21°C° 0 mm 1 mps 737 mmHg 90%
21:00 +21°C° 0 mm 1 mps 738 mmHg 90%
22:00 +20°C° 0 mm 1 mps 738 mmHg 90%
23:00 +20°C° 0 mm 1 mps 738 mmHg 90%

Day after tomorrow, 2 August, Monday

Time Temperature Precipitation Wind Pressure Humidity
00:00 +20°C° 0 mm 1 mps 738 mmHg 89%
01:00 +20°C° 0 mm 1 mps 737 mmHg 88%
02:00 +20°C° 0 mm 1 mps 737 mmHg 86%
03:00 +20°C° 0 mm 1 mps 737 mmHg 88%
04:00 +20°C° 0 mm 1 mps 737 mmHg 89%
05:00 +19°C° 0 mm 2 mps 737 mmHg 91%
06:00 +20°C° 0.4 mm 2 mps 737 mmHg 88%
07:00 +21°C° 0.4 mm 2 mps 736 mmHg 86%
08:00 +24°C° 0.4 mm 3 mps 736 mmHg 84%
09:00 +26°C° 0.1 mm 3 mps 736 mmHg 75%
10:00 +27°C° 0.1 mm 4 mps 735 mmHg 66%
11:00 +29°C° 0.1 mm 5 mps 735 mmHg 56%
12:00 +29°C° 0.4 mm 5 mps 735 mmHg 58%
13:00 +29°C° 0.4 mm 4 mps 734 mmHg 60%
14:00 +29°C° 0.4 mm 4 mps 734 mmHg 62%
15:00 +28°C° 1.3 mm 5 mps 733 mmHg 68%
16:00 +26°C° 1.3 mm 6 mps 733 mmHg 73%
17:00 +24°C° 1.3 mm 6 mps 733 mmHg 78%
18:00 +22°C° 0.6 mm 5 mps 733 mmHg 83%
19:00 +20°C° 0.6 mm 4 mps 733 mmHg 87%
20:00 +18°C° 0.6 mm 4 mps 733 mmHg 92%
21:00 +18°C° 0.2 mm 4 mps 733 mmHg 93%
22:00 +18°C° 0.2 mm 4 mps 733 mmHg 95%
23:00 +17°C° 0.2 mm 4 mps 734 mmHg 97%

3 August, Tuesday

Time Temperature Precipitation Wind Pressure Humidity
00:00 +17°C° 0.2 mm 4 mps 734 mmHg 96%
01:00 +17°C° 0.2 mm 4 mps 734 mmHg 96%
02:00 +17°C° 0.2 mm 3 mps 734 mmHg 96%
03:00 +16°C° 0 mm 3 mps 735 mmHg 96%
04:00 +16°C° 0 mm 3 mps 735 mmHg 96%
05:00 +16°C° 0 mm 3 mps 736 mmHg 96%
06:00 +16°C° 0 mm 3 mps 736 mmHg 95%
07:00 +16°C° 0 mm 3 mps 737 mmHg 94%
08:00 +16°C° 0 mm 3 mps 737 mmHg 93%
09:00 +17°C° 0 mm 3 mps 738 mmHg 87%
10:00 +18°C° 0 mm 3 mps 738 mmHg 82%
11:00 +19°C° 0 mm 3 mps 738 mmHg 76%
12:00 +20°C° 0.1 mm 4 mps 738 mmHg 67%
13:00 +22°C° 0.1 mm 4 mps 738 mmHg 58%
14:00 +23°C° 0.1 mm 4 mps 738 mmHg 49%
15:00 +22°C° 0 mm 4 mps 738 mmHg 50%
16:00 +22°C° 0 mm 4 mps 739 mmHg 51%
17:00 +22°C° 0 mm 4 mps 739 mmHg 52%
18:00 +20°C° 0 mm 3 mps 739 mmHg 58%
19:00 +18°C° 0 mm 3 mps 739 mmHg 65%
20:00 +17°C° 0 mm 2 mps 740 mmHg 71%
21:00 +16°C° 0 mm 2 mps 740 mmHg 75%
22:00 +15°C° 0 mm 2 mps 740 mmHg 78%
23:00 +15°C° 0 mm 2 mps 740 mmHg 82%

4 August, Wednesday

Time Temperature Precipitation Wind Pressure Humidity
00:00 +14°C° 0 mm 2 mps 741 mmHg 84%
01:00 +14°C° 0 mm 2 mps 741 mmHg 87%
02:00 +13°C° 0 mm 1 mps 741 mmHg 89%
03:00 +13°C° 0 mm 1 mps 742 mmHg 90%
04:00 +13°C° 0 mm 1 mps 742 mmHg 92%
05:00 +13°C° 0 mm 1 mps 742 mmHg 93%
06:00 +15°C° 0 mm 1 mps 742 mmHg 85%
07:00 +18°C° 0 mm 1 mps 743 mmHg 77%
08:00 +20°C° 0 mm 1 mps 743 mmHg 69%
09:00 +21°C° 0.4 mm 1 mps 743 mmHg 66%
10:00 +22°C° 0.4 mm 1 mps 743 mmHg 63%
11:00 +23°C° 0.4 mm 1 mps 743 mmHg 61%
12:00 +22°C° 0.6 mm 1 mps 743 mmHg 64%
13:00 +22°C° 0.6 mm 1 mps 743 mmHg 66%
14:00 +22°C° 0.6 mm 1 mps 743 mmHg 69%
15:00 +22°C° 0.9 mm 1 mps 743 mmHg 74%
16:00 +21°C° 0.9 mm 1 mps 743 mmHg 78%
17:00 +21°C° 0.9 mm 1 mps 744 mmHg 83%
18:00 +19°C° 0.1 mm 1 mps 744 mmHg 85%
19:00 +18°C° 0.1 mm 1 mps 744 mmHg 87%
20:00 +16°C° 0.1 mm 1 mps 744 mmHg 89%
21:00 +15°C° 0 mm 1 mps 744 mmHg 90%
22:00 +15°C° 0 mm 1 mps 744 mmHg 92%
23:00 +14°C° 0 mm 1 mps 744 mmHg 93%

5 August, Thursday

Time Temperature Precipitation Wind Pressure Humidity
00:00 +14°C° 0 mm 1 mps 744 mmHg 93%
01:00 +14°C° 0 mm 1 mps 744 mmHg 94%
02:00 +14°C° 0 mm 1 mps 744 mmHg 94%
03:00 +14°C° 0 mm 1 mps 744 mmHg 94%
04:00 +14°C° 0 mm 1 mps 744 mmHg 93%
05:00 +14°C° 0 mm 1 mps 744 mmHg 93%
06:00 +15°C° 0 mm 1 mps 744 mmHg 90%
07:00 +16°C° 0 mm 2 mps 744 mmHg 87%
08:00 +17°C° 0 mm 2 mps 744 mmHg 84%
09:00 +19°C° 0 mm 2 mps 744 mmHg 74%
10:00 +21°C° 0 mm 2 mps 744 mmHg 65%
11:00 +23°C° 0 mm 2 mps 744 mmHg 55%
12:00 +24°C° 0 mm 2 mps 744 mmHg 52%
13:00 +25°C° 0 mm 2 mps 744 mmHg 48%
14:00 +26°C° 0 mm 2 mps 744 mmHg 45%
15:00 +25°C° 0 mm 2 mps 743 mmHg 49%
16:00 +25°C° 0 mm 2 mps 743 mmHg 54%
17:00 +24°C° 0 mm 1 mps 743 mmHg 58%
18:00 +23°C° 0 mm 2 mps 743 mmHg 62%
19:00 +20°C° 0 mm 2 mps 743 mmHg 66%
20:00 +19°C° 0 mm 2 mps 743 mmHg 70%
21:00 +19°C° 0 mm 2 mps 742 mmHg 71%
22:00 +18°C° 0 mm 2 mps 742 mmHg 72%
23:00 +18°C° 0 mm 3 mps 742 mmHg 72%
Show more

We Need Your Consent

Meteoprog and our Service Providers may store and access personal data such as cookies, device identifiers or other similar technologies on your device and process such data to personalise content and ads, as well as provide social media features and to analyse the traffic.

  • Store and/or access information on your device

    Cookies, device identifiers or other information can be stored or accessed on your device for the purposes indicated above.

  • Personalised ads and content, ad and content measurement, audience insights, and products development

    Ads and content can be personalised based on a profile. More data can be added to better personalise ads and content. Ad and content performance can be measured. Insights about the audience who saw the ads and content can be derived. Such data can be used to develop or improve user’s experience, systems and software.

By clicking ‘I Agree’ you will allow the use of indicated cookies, device identifiers, web beacons or other similar technologies. Your settings can be changed in the browser on your device.

For certain purposes, legitimate interests may be relied on, rather than consent. You can read more about this in our Privacy and Cookie Policy.